Weather History for Centralia, IL

Change the Weather History Date:

Saturday, February 9, 2013

  Actual Average (KSLO) Record (KSLO)
Temperature  
Mean Temperature 38 °F -  
Max Temperature 45 °F 38 °F 67 °F (2009)
Min Temperature 32 °F 19 °F -10 °F (1979)
Degree Days  
Heating Degree Days 26    
Moisture  
Dew Point 29 °F    
Average Humidity 71    
Maximum Humidity 80    
Minimum Humidity 56    
Precipitation  
Precipitation 0.01 in - - ()
Sea Level Pressure  
Sea Level Pressure 30.26 in    
Wind  
Wind Speed 7 mph (ESE)    
Max Wind Speed 13 mph    
Max Gust Speed 18 mph    
Visibility 10 miles    
Events Rain    
Averages and records for this station are not official NWS values.
T = Trace of Precipitation, MM = Missing Value Source: NWS Daily Summary

Daily Weather History Graph

Daily Weather History Graph

Search for Another Location

Airport:

Trip Planner

Search our weather history database for the weather conditions in past years. The results will help you decide how hot, cold, wet, or windy it might be!

Date:

Astronomy

Feb. 09, 2013 Rise Set
Actual Time 6:53 AM CST 5:28 PM CST
Civil Twilight 6:26 AM CST 5:55 PM CST
Nautical Twilight 5:54 AM CST 6:26 PM CST
Astronomical Twilight 5:24 AM CST 6:57 PM CST
Moon 6:05 AM CST (2/9) 5:10 PM CST (2/9)
Length of Visible Light 11h 29m
Length of Day
10h 34m
Waning Crescent, 0% of the Moon is Illuminated
Feb 9
Waning Crescent
Feb 10
New
Feb 17
First Quarter
Feb 25
Full
Mar 4
Last Quarter

Hourly Weather History & Observations

Time (CST) Temp. Windchill Dew Point Humidity Pressure Visibility Wind Dir Wind Speed Gust Speed Precip Events Conditions
12:15 AM 32.4 °F 26.9 °F 25.7 °F 76% 30.36 in 10.0 mi East 5.8 mph - N/A   Overcast
12:35 AM 32.2 °F 25.8 °F 25.3 °F 76% 30.36 in 10.0 mi East 6.9 mph - N/A   Overcast
12:55 AM 32.4 °F 24.6 °F 25.3 °F 75% 30.36 in 10.0 mi ENE 9.2 mph - N/A   Overcast
1:15 AM 32.4 °F 26.0 °F 25.3 °F 75% 30.36 in 10.0 mi East 6.9 mph - N/A   Overcast
1:35 AM 32.2 °F 26.7 °F 26.1 °F 78% 30.35 in 10.0 mi East 5.8 mph - N/A   Overcast
1:55 AM 32.2 °F 27.7 °F 25.7 °F 77% 30.36 in 10.0 mi ENE 4.6 mph - N/A   Overcast
2:15 AM 32.4 °F 29.1 °F 26.2 °F 78% 30.36 in 10.0 mi East 3.5 mph - N/A   Overcast
2:35 AM 32.2 °F 25.0 °F 25.9 °F 78% 30.36 in 10.0 mi East 8.1 mph - N/A   Overcast
2:55 AM 32.0 °F 24.8 °F 25.7 °F 78% 30.36 in 10.0 mi ESE 8.1 mph - N/A   Overcast
3:15 AM 32.0 °F 26.4 °F 25.7 °F 78% 30.36 in 10.0 mi ESE 5.8 mph - N/A   Overcast
3:35 AM 32.0 °F 27.5 °F 25.7 °F 78% 30.36 in 10.0 mi ENE 4.6 mph - N/A   Overcast
3:55 AM 32.0 °F 26.4 °F 26.4 °F 80% 30.37 in 10.0 mi East 5.8 mph - N/A   Overcast
4:15 AM 32.2 °F - 25.9 °F 78% 30.37 in 10.0 mi Calm Calm - N/A   Overcast
4:35 AM 32.2 °F 27.7 °F 26.1 °F 78% 30.38 in 10.0 mi East 4.6 mph - N/A   Overcast
4:55 AM 32.2 °F 26.7 °F 26.1 °F 78% 30.37 in 10.0 mi ESE 5.8 mph - N/A   Overcast
5:15 AM 32.0 °F 27.5 °F 26.6 °F 80% 30.37 in 10.0 mi East 4.6 mph - N/A   Overcast
5:35 AM 32.0 °F 26.4 °F 26.4 °F 80% 30.36 in 10.0 mi ESE 5.8 mph - N/A   Overcast
5:55 AM 32.0 °F 24.8 °F 26.6 °F 80% 30.36 in 10.0 mi SE 8.1 mph - N/A   Overcast
6:15 AM 32.0 °F 24.8 °F 26.2 °F 79% 30.35 in 10.0 mi ESE 8.1 mph - N/A   Overcast
6:35 AM 32.0 °F 24.2 °F 26.1 °F 79% 30.35 in 10.0 mi ESE 9.2 mph - N/A   Overcast
6:55 AM 32.0 °F 24.8 °F 26.6 °F 80% 30.34 in 10.0 mi East 8.1 mph - N/A   Overcast
7:15 AM 32.0 °F 22.5 °F 26.1 °F 79% 30.36 in 10.0 mi SE 12.7 mph - N/A   Overcast
7:35 AM 32.0 °F 23.6 °F 26.4 °F 80% 30.36 in 10.0 mi ESE 10.4 mph - N/A   Overcast
7:55 AM 32.0 °F 23.6 °F 26.6 °F 80% 30.35 in 10.0 mi ESE 10.4 mph 17.3 mph N/A   Overcast
8:15 AM 32.4 °F 24.6 °F 26.6 °F 79% 30.35 in 10.0 mi SE 9.2 mph 17.3 mph N/A   Overcast
8:35 AM 32.9 °F 23.7 °F 26.6 °F 78% 30.36 in 10.0 mi SE 12.7 mph 18.4 mph N/A   Overcast
8:55 AM 33.4 °F 26.6 °F 27.0 °F 77% 30.36 in 10.0 mi SE 8.1 mph - N/A   Overcast
9:15 AM 33.8 °F 25.3 °F 27.0 °F 76% 30.36 in 10.0 mi ESE 11.5 mph - N/A   Overcast
9:35 AM 34.0 °F 26.6 °F 27.5 °F 77% 30.36 in 10.0 mi ESE 9.2 mph - N/A   Overcast
9:55 AM 34.2 °F 27.5 °F 27.3 °F 76% 30.35 in 10.0 mi ESE 8.1 mph - N/A   Overcast
10:15 AM 34.7 °F 25.9 °F 27.5 °F 75% 30.35 in 10.0 mi SE 12.7 mph - N/A   Overcast
10:35 AM 35.8 °F 28.3 °F 28.0 °F 73% 30.36 in 10.0 mi SE 10.4 mph - N/A   Overcast
10:55 AM 36.1 °F 30.6 °F 27.9 °F 72% 30.34 in 10.0 mi ESE 6.9 mph - N/A   Mostly Cloudy
11:15 AM 38.3 °F 31.9 °F 29.5 °F 71% 30.33 in 10.0 mi SE 9.2 mph - N/A   Scattered Clouds
11:35 AM 37.9 °F 31.5 °F 28.6 °F 69% 30.32 in 10.0 mi SE 9.2 mph 16.1 mph N/A   Scattered Clouds
11:55 AM 38.7 °F 32.9 °F 29.3 °F 69% 30.30 in 10.0 mi ESE 8.1 mph - N/A   Clear
12:15 PM 39.7 °F 34.9 °F 28.9 °F 65% 30.30 in 10.0 mi South 6.9 mph - N/A   Unknown
12:35 PM 40.5 °F 36.5 °F 29.8 °F 66% 30.30 in 10.0 mi SE 5.8 mph - N/A   Unknown
12:55 PM 41.4 °F 38.4 °F 29.3 °F 62% 30.28 in 10.0 mi SSE 4.6 mph - N/A   Unknown
1:15 PM 41.7 °F 38.8 °F 28.9 °F 61% 30.27 in 10.0 mi SE 4.6 mph - N/A   Unknown
1:35 PM 42.8 °F 38.6 °F 30.2 °F 61% 30.26 in 10.0 mi ESE 6.9 mph - N/A   Unknown
1:55 PM 43.7 °F 39.1 °F 31.1 °F 61% 30.24 in 10.0 mi SE 8.1 mph - N/A   Unknown
2:15 PM 44.6 °F 40.7 °F 31.1 °F 59% 30.23 in 10.0 mi ESE 6.9 mph - N/A   Unknown
2:35 PM 45.0 °F 40.6 °F 30.6 °F 57% 30.21 in 10.0 mi ESE 8.1 mph - N/A   Unknown
2:55 PM 45.5 °F 41.8 °F 30.7 °F 56% 30.21 in 10.0 mi SE 6.9 mph - N/A   Clear
3:15 PM 45.5 °F 41.3 °F 31.3 °F 58% 30.20 in 10.0 mi ESE 8.1 mph - N/A   Clear
3:35 PM 44.4 °F 39.5 °F 30.2 °F 57% 30.19 in 10.0 mi ESE 9.2 mph - N/A   Clear
3:55 PM 43.7 °F 38.6 °F 30.2 °F 59% 30.18 in 10.0 mi ESE 9.2 mph - N/A   Clear
4:15 PM 43.7 °F 39.1 °F 31.5 °F 62% 30.17 in 10.0 mi ESE 8.1 mph - N/A   Clear
4:35 PM 43.7 °F 38.6 °F 31.1 °F 61% 30.17 in 10.0 mi ESE 9.2 mph - N/A   Clear
4:55 PM 42.8 °F 38.0 °F 31.8 °F 65% 30.17 in 10.0 mi ESE 8.1 mph - N/A   Clear
5:15 PM 42.3 °F 37.9 °F 31.6 °F 66% 30.16 in 10.0 mi ESE 6.9 mph - N/A   Clear
5:35 PM 41.5 °F 37.8 °F 31.5 °F 67% 30.15 in 10.0 mi ESE 5.8 mph - N/A   Clear
5:55 PM 41.2 °F 37.3 °F 31.6 °F 69% 30.14 in 10.0 mi East 5.8 mph - N/A   Clear
6:15 PM 41.0 °F 35.8 °F 31.8 °F 70% 30.13 in 10.0 mi East 8.1 mph - N/A   Clear
6:35 PM 41.0 °F 35.8 °F 32.0 °F 70% 30.13 in 10.0 mi ESE 8.1 mph - N/A   Clear
6:55 PM 41.0 °F 35.8 °F 32.0 °F 70% 30.13 in 10.0 mi ESE 8.1 mph - N/A   Clear
7:15 PM 41.0 °F 35.8 °F 32.0 °F 70% 30.13 in 10.0 mi ESE 8.1 mph - N/A   Clear
7:35 PM 40.6 °F 35.4 °F 32.0 °F 71% 30.13 in 10.0 mi ESE 8.1 mph - N/A   Clear
7:55 PM 40.6 °F 34.8 °F 32.0 °F 71% 30.13 in 10.0 mi ESE 9.2 mph - N/A   Clear
8:15 PM 41.0 °F 38.0 °F 32.0 °F 70% 30.14 in 10.0 mi ESE 4.6 mph - N/A   Clear
8:35 PM 40.8 °F 37.8 °F 32.0 °F 71% 30.13 in 10.0 mi ESE 4.6 mph - N/A   Clear
8:55 PM 40.8 °F 37.8 °F 32.0 °F 71% 30.13 in 10.0 mi ESE 4.6 mph - N/A   Clear
9:15 PM 41.0 °F 36.4 °F 32.0 °F 70% 30.13 in 10.0 mi SE 6.9 mph - N/A   Clear
9:35 PM 41.0 °F 36.4 °F 32.0 °F 70% 30.11 in 10.0 mi SE 6.9 mph - N/A   Scattered Clouds
9:55 PM 41.5 °F 35.4 °F 32.0 °F 69% 30.10 in 10.0 mi ESE 10.4 mph - N/A   Mostly Cloudy
10:15 PM 41.5 °F 35.9 °F 32.0 °F 69% 30.09 in 10.0 mi ESE 9.2 mph - N/A   Overcast
10:35 PM 41.5 °F 35.4 °F 31.8 °F 68% 30.08 in 10.0 mi ESE 10.4 mph - N/A   Overcast
10:55 PM 41.9 °F 36.3 °F 32.0 °F 68% 30.07 in 10.0 mi SE 9.2 mph - N/A   Overcast
11:15 PM 41.9 °F 35.9 °F 31.8 °F 67% 30.06 in 10.0 mi SE 10.4 mph - N/A   Overcast
11:35 PM 41.2 °F 34.5 °F 32.7 °F 72% 30.05 in 10.0 mi SE 11.5 mph 17.3 mph N/A Rain Light Rain
11:55 PM 41.0 °F 35.8 °F 33.8 °F 76% 30.08 in 10.0 mi SSE 8.1 mph - 0.01 in Rain Light Rain